When you browse on this site, cookies collect data to enhance your experience and personalize the content and advertising you see.
Visit our Privacy Policy to learn more. By continuing to use the site, you agree to this use of cookies and data.
  • în România
  • Lista ţărilor
  • Pe 7 zile
  • Temperatura apei
  • Hartă satelitară
  • Meteo pe hartă
  • Widget-uri
  • user-avatar
    Intrare

    Meteo pe oră la Patmos

    Astăzi, 25 Mai, Sâmbătă

    Timp Temperatura Precipitaţii Vânt Presiune Umiditate
    00:00 +21°C° 0 mm 3 m/s 757 mmHg 76%
    01:00 +21°C° 0 mm 2 m/s 757 mmHg 76%
    02:00 +21°C° 0 mm 2 m/s 757 mmHg 73%
    03:00 +21°C° 0 mm 2 m/s 757 mmHg 72%
    04:00 +22°C° 0 mm 1 m/s 757 mmHg 70%
    05:00 +20°C° 0 mm 0 m/s 758 mmHg 69%
    06:00 +22°C° 0 mm 1 m/s 758 mmHg 69%
    07:00 +22°C° 0 mm 1 m/s 758 mmHg 70%
    08:00 +20°C° 0 mm 2 m/s 758 mmHg 73%
    09:00 +21°C° 0 mm 2 m/s 759 mmHg 73%
    10:00 +21°C° 0 mm 2 m/s 759 mmHg 72%
    11:00 +21°C° 0 mm 2 m/s 759 mmHg 71%
    12:00 +21°C° 0 mm 2 m/s 759 mmHg 70%
    13:00 +21°C° 0 mm 2 m/s 759 mmHg 68%
    14:00 +23°C° 0 mm 2 m/s 759 mmHg 65%
    15:00 +23°C° 0 mm 2 m/s 759 mmHg 64%
    16:00 +23°C° 0 mm 1 m/s 759 mmHg 63%
    17:00 +24°C° 0 mm 1 m/s 759 mmHg 61%
    18:00 +24°C° 0 mm 1 m/s 759 mmHg 66%
    19:00 +23°C° 0 mm 1 m/s 759 mmHg 71%
    20:00 +21°C° 0 mm 0 m/s 759 mmHg 76%
    21:00 +21°C° 0 mm 0 m/s 760 mmHg 77%
    22:00 +21°C° 0 mm 0 m/s 760 mmHg 78%
    23:00 +21°C° 0 mm 0 m/s 760 mmHg 78%

    Mâine, 26 Mai, Duminică

    Timp Temperatura Precipitaţii Vânt Presiune Umiditate
    00:00 +21°C° 0 mm 0 m/s 760 mmHg 78%
    01:00 +21°C° 0 mm 0 m/s 760 mmHg 78%
    02:00 +21°C° 0 mm 0 m/s 760 mmHg 77%
    03:00 +23°C° 0 mm 1 m/s 760 mmHg 75%
    04:00 +23°C° 0 mm 1 m/s 760 mmHg 73%
    05:00 +23°C° 0 mm 2 m/s 760 mmHg 71%
    06:00 +23°C° 0 mm 2 m/s 760 mmHg 71%
    07:00 +23°C° 0 mm 2 m/s 760 mmHg 72%
    08:00 +21°C° 0 mm 2 m/s 760 mmHg 72%
    09:00 +23°C° 0 mm 2 m/s 760 mmHg 70%
    10:00 +23°C° 0 mm 2 m/s 760 mmHg 69%
    11:00 +23°C° 0 mm 2 m/s 760 mmHg 67%
    12:00 +24°C° 0 mm 3 m/s 760 mmHg 67%
    13:00 +24°C° 0 mm 3 m/s 760 mmHg 66%
    14:00 +24°C° 0 mm 3 m/s 760 mmHg 65%
    15:00 +23°C° 0 mm 4 m/s 759 mmHg 66%
    16:00 +23°C° 0 mm 4 m/s 759 mmHg 67%
    17:00 +23°C° 0 mm 5 m/s 759 mmHg 68%
    18:00 +23°C° 0 mm 5 m/s 759 mmHg 69%
    19:00 +23°C° 0 mm 4 m/s 759 mmHg 69%
    20:00 +23°C° 0 mm 4 m/s 759 mmHg 70%
    21:00 +23°C° 0 mm 4 m/s 759 mmHg 70%
    22:00 +23°C° 0 mm 4 m/s 759 mmHg 70%
    23:00 +23°C° 0 mm 4 m/s 759 mmHg 69%

    Poimâine, 27 Mai, Luni

    Timp Temperatura Precipitaţii Vânt Presiune Umiditate
    00:00 +23°C° 0 mm 4 m/s 759 mmHg 69%
    01:00 +24°C° 0 mm 3 m/s 759 mmHg 69%
    02:00 +24°C° 0 mm 3 m/s 758 mmHg 69%
    03:00 +24°C° 0 mm 3 m/s 758 mmHg 69%
    04:00 +24°C° 0 mm 2 m/s 758 mmHg 70%
    05:00 +24°C° 0 mm 2 m/s 758 mmHg 70%
    06:00 +24°C° 0 mm 2 m/s 758 mmHg 70%
    07:00 +24°C° 0 mm 2 m/s 758 mmHg 70%
    08:00 +24°C° 0 mm 2 m/s 758 mmHg 69%
    09:00 +24°C° 0 mm 1 m/s 758 mmHg 71%
    10:00 +24°C° 0 mm 1 m/s 758 mmHg 72%
    11:00 +22°C° 0 mm 0 m/s 759 mmHg 74%
    12:00 +23°C° 0 mm 0 m/s 758 mmHg 69%
    13:00 +23°C° 0 mm 0 m/s 758 mmHg 64%
    14:00 +23°C° 0 mm 0 m/s 758 mmHg 59%
    15:00 +26°C° 0 mm 1 m/s 758 mmHg 60%
    16:00 +26°C° 0 mm 1 m/s 758 mmHg 60%
    17:00 +26°C° 0 mm 2 m/s 758 mmHg 61%
    18:00 +25°C° 0 mm 1 m/s 758 mmHg 64%
    19:00 +25°C° 0 mm 1 m/s 758 mmHg 67%
    20:00 +24°C° 0 mm 1 m/s 758 mmHg 69%
    21:00 +24°C° 0 mm 1 m/s 758 mmHg 68%
    22:00 +24°C° 0 mm 2 m/s 758 mmHg 68%
    23:00 +24°C° 0 mm 2 m/s 758 mmHg 67%

    28 Mai, Marţi

    Timp Temperatura Precipitaţii Vânt Presiune Umiditate
    00:00 +24°C° 0 mm 2 m/s 758 mmHg 67%
    01:00 +24°C° 0 mm 2 m/s 757 mmHg 68%
    02:00 +24°C° 0 mm 3 m/s 757 mmHg 69%
    03:00 +24°C° 0 mm 3 m/s 757 mmHg 68%
    04:00 +24°C° 0 mm 3 m/s 757 mmHg 67%
    05:00 +24°C° 0 mm 3 m/s 757 mmHg 67%
    06:00 +24°C° 0 mm 3 m/s 757 mmHg 67%
    07:00 +24°C° 0 mm 3 m/s 757 mmHg 68%
    08:00 +24°C° 0 mm 3 m/s 757 mmHg 68%
    09:00 +24°C° 0 mm 3 m/s 758 mmHg 68%
    10:00 +23°C° 0 mm 4 m/s 758 mmHg 68%
    11:00 +23°C° 0 mm 4 m/s 758 mmHg 67%
    12:00 +23°C° 0 mm 4 m/s 758 mmHg 69%
    13:00 +23°C° 0 mm 4 m/s 757 mmHg 70%
    14:00 +23°C° 0 mm 4 m/s 757 mmHg 72%
    15:00 +23°C° 0 mm 4 m/s 757 mmHg 71%
    16:00 +23°C° 0 mm 4 m/s 757 mmHg 71%
    17:00 +25°C° 0 mm 3 m/s 757 mmHg 71%
    18:00 +23°C° 0 mm 4 m/s 757 mmHg 73%
    19:00 +23°C° 0 mm 4 m/s 757 mmHg 74%
    20:00 +23°C° 0 mm 4 m/s 758 mmHg 76%
    21:00 +23°C° 0 mm 4 m/s 758 mmHg 76%
    22:00 +22°C° 0 mm 4 m/s 758 mmHg 77%
    23:00 +22°C° 0 mm 4 m/s 758 mmHg 77%

    29 Mai, Miercuri

    Timp Temperatura Precipitaţii Vânt Presiune Umiditate
    00:00 +22°C° 0 mm 4 m/s 758 mmHg 78%
    01:00 +22°C° 0 mm 4 m/s 758 mmHg 79%
    02:00 +22°C° 0 mm 4 m/s 758 mmHg 80%
    03:00 +22°C° 0 mm 3 m/s 758 mmHg 80%
    04:00 +21°C° 0 mm 3 m/s 757 mmHg 80%
    05:00 +21°C° 0 mm 3 m/s 757 mmHg 80%
    06:00 +21°C° 0 mm 3 m/s 758 mmHg 80%
    07:00 +21°C° 0 mm 3 m/s 758 mmHg 81%
    08:00 +21°C° 0 mm 3 m/s 758 mmHg 81%
    09:00 +21°C° 0 mm 3 m/s 758 mmHg 80%
    10:00 +22°C° 0 mm 3 m/s 759 mmHg 79%
    11:00 +22°C° 0 mm 3 m/s 759 mmHg 79%
    12:00 +22°C° 0 mm 3 m/s 759 mmHg 78%
    13:00 +22°C° 0 mm 3 m/s 758 mmHg 77%
    14:00 +23°C° 0 mm 2 m/s 758 mmHg 76%
    15:00 +23°C° 0 mm 2 m/s 758 mmHg 75%
    16:00 +23°C° 0 mm 2 m/s 758 mmHg 74%
    17:00 +23°C° 0 mm 1 m/s 758 mmHg 73%
    18:00 +23°C° 0 mm 1 m/s 758 mmHg 75%
    19:00 +23°C° 0 mm 1 m/s 758 mmHg 77%
    20:00 +23°C° 0 mm 1 m/s 758 mmHg 79%
    21:00 +23°C° 0 mm 1 m/s 758 mmHg 80%
    22:00 +23°C° 0 mm 1 m/s 758 mmHg 81%
    23:00 +23°C° 0 mm 1 m/s 759 mmHg 82%

    30 Mai, Joi

    Timp Temperatura Precipitaţii Vânt Presiune Umiditate
    00:00 +23°C° 0 mm 1 m/s 758 mmHg 82%
    01:00 +23°C° 0 mm 1 m/s 758 mmHg 81%
    02:00 +21°C° 0 mm 0 m/s 758 mmHg 81%
    03:00 +23°C° 0 mm 1 m/s 758 mmHg 80%
    04:00 +23°C° 0 mm 1 m/s 758 mmHg 79%
    05:00 +22°C° 0 mm 1 m/s 758 mmHg 78%
    06:00 +23°C° 0 mm 1 m/s 758 mmHg 77%
    07:00 +23°C° 0 mm 1 m/s 758 mmHg 77%
    08:00 +23°C° 0 mm 1 m/s 758 mmHg 76%
    09:00 +23°C° 0 mm 1 m/s 758 mmHg 75%
    10:00 +23°C° 0 mm 2 m/s 758 mmHg 73%
    11:00 +23°C° 0 mm 2 m/s 758 mmHg 72%
    12:00 +24°C° 0 mm 3 m/s 758 mmHg 72%
    13:00 +23°C° 0 mm 4 m/s 758 mmHg 73%
    14:00 +23°C° 0 mm 5 m/s 758 mmHg 73%
    15:00 +23°C° 0 mm 5 m/s 758 mmHg 75%
    16:00 +23°C° 0 mm 5 m/s 758 mmHg 76%
    17:00 +23°C° 0 mm 5 m/s 758 mmHg 77%
    18:00 +23°C° 0 mm 5 m/s 758 mmHg 77%
    19:00 +23°C° 0 mm 5 m/s 758 mmHg 77%
    20:00 +23°C° 0 mm 4 m/s 758 mmHg 76%
    21:00 +23°C° 0 mm 5 m/s 758 mmHg 76%
    22:00 +23°C° 0 mm 5 m/s 759 mmHg 76%
    23:00 +23°C° 0 mm 5 m/s 759 mmHg 76%
    Arată mai mult